Content
SEND FEEDBACK

Daily
Averages
Monthly
Summary
United States of America

ST. LOUIS, MISSOURI


Home > North America > United States > Missouri
Elevation: 535 feet     Latitude: 38 45N     Longitude: 090 22W

WEATHER
 
SELECT A DAY
Number of Records: 196,364;   Date Range: 1/1/95 - 7/26/14
 
SHARE

PRINT THIS DATA

[ ← Previous Day ]
WEATHER ALMANAC - MARCH 29, 2013
[ Next Day → ]
[ °C ]   °F
Weather ElementAverageHighLow
Temperature50.2 °F62.1 °F (2:54 pm)37.9 °F (5:54 am)
Dewpoint40.1 °F43 °F (11:54 am)35.1 °F (6:54 am)
Humidity70.3 %93 % (5:54 am)48 % (2:54 pm)
Barometer30.22 in30.25 in (8:54 am)30.18 in (4:54 pm)
Wind Speed3.7 mph8.1 mph (12:54 pm)
Weather ElementAverage
Visibility9.7 mi
Wind DirectionNNE (33.5 °)

Weather ElementTotal
Precipitation---
Heating Degree Days15 (Base 65)
Averaged from 23 records on March 29, 2013
WEATHER CONDITIONS BREAKOUT
WIND DIRECTION BREAKOUT
WEATHER BY HOUR - MARCH 29, 2013
[ °C ]   °F
Local TimeTemperatureDewpointHumidityBarometerVisibilityWind DirectionWind SpeedGust SpeedPrecipitationEventsConditions
1:54 AM48.0 °F37.0 °F66 %30.24 in10.0 miVariable6.9 mphScattered Clouds
2:54 AM46.0 °F37.9 °F73 %30.22 in10.0 miEast (100°)3.5 mphClear
3:54 AM42.1 °F37.9 °F85 %30.22 in10.0 miENE (70°)5.8 mphClear
4:54 AM39.0 °F36.0 °F89 %30.22 in7.0 miCalmClear
5:54 AM37.9 °F36.0 °F93 %30.22 in10.0 miENE (70°)3.5 mphClear
6:54 AM37.9 °F35.1 °F89 %30.23 in10.0 miCalmClear
7:54 AM39.0 °F37.0 °F93 %30.24 in10.0 miCalmPartly Cloudy
8:54 AM46.9 °F39.9 °F77 %30.25 in10.0 miEast (90°)5.8 mphClear
9:54 AM51.1 °F41.0 °F68 %30.24 in10.0 miEast (90°)4.6 mphClear
10:54 AM54.0 °F42.1 °F64 %30.25 in10.0 miCalmClear
11:54 AM55.9 °F43.0 °F62 %30.24 in10.0 miVariable4.6 mphClear
12:54 PM59.0 °F43.0 °F55 %30.22 in10.0 miNNE (30°)8.1 mphClear
1:54 PM61.0 °F43.0 °F52 %30.21 in10.0 miNE (40°)6.9 mphScattered Clouds
2:54 PM62.1 °F42.1 °F48 %30.19 in10.0 miVariable5.8 mphScattered Clouds
3:54 PM62.1 °F42.1 °F48 %30.19 in10.0 miVariable4.6 mphScattered Clouds
4:54 PM62.1 °F42.1 °F48 %30.18 in10.0 miNE (50°)8.1 mphPartly Cloudy
5:54 PM61.0 °F42.1 °F50 %30.19 in10.0 miENE (70°)6.9 mphPartly Cloudy
6:54 PM57.9 °F41.0 °F53 %30.19 in10.0 miENE (70°)6.9 mphScattered Clouds
7:54 PM54.0 °F42.1 °F64 %30.19 in10.0 miEast (90°)3.5 mphClear
8:54 PM48.0 °F41.0 °F77 %30.21 in10.0 miCalmClear
9:54 PM45.0 °F41.0 °F86 %30.22 in10.0 miCalmClear
10:54 PM43.0 °F39.9 °F89 %30.22 in10.0 miCalmClear
11:54 PM42.1 °F39.0 °F89 %30.22 in5.0 miCalmClear
Hourly data recorded from KSUS, located miles away from St. Louis, Missouri







STORIES FROM OUR PARTNERS